Location: Songkhla
(7.2000°N, 100.6000°E)
Time: 07:36:16
(UTC+07:00)

BEESAT - Visible Passes

Search period start: 05 August 2021 00:00
Search period end: 15 August 2021 00:00
Orbit: 700 x 707 km, 98.6° (Epoch: 04 August)

Date Brightness Start Highest point End Pass type
(mag) Time Alt. Az. Time Alt. Az. Time Alt. Az.
05 Aug ? 19:49:30 10° N 19:53:57 41° WNW 19:58:26 10° SW visible
06 Aug ? 18:55:13 10° NE 18:59:36 37° ESE 19:03:59 10° SSE visible
06 Aug ? 20:35:31 10° WNW 20:36:59 11° WNW 20:38:27 10° W visible
07 Aug ? 19:38:03 10° N 19:42:44 59° WNW 19:47:25 10° SSW visible
08 Aug ? 20:22:52 10° NW 20:25:47 16° WNW 20:28:43 10° WSW visible
09 Aug ? 19:26:44 10° N 19:31:31 84° WNW 19:36:17 10° SSW visible
10 Aug ? 20:10:53 10° NNW 20:14:35 23° WNW 20:18:18 10° SW visible
11 Aug ? 19:15:32 10° NNE 19:20:17 68° ESE 19:25:01 10° S visible
12 Aug ? 19:59:10 10° NNW 20:03:22 32° WNW 20:07:36 10° SW visible
13 Aug ? 19:04:27 10° NNE 19:09:02 47° ESE 19:13:36 10° S visible
14 Aug ? 19:47:37 10° N 19:52:09 45° WNW 19:56:42 10° SSW visible
